TimePDT,TemperatureF,Dew PointF,Humidity,Sea Level PressureIn,VisibilityMPH,Wind Direction,Wind SpeedMPH,Gust SpeedMPH,PrecipitationIn,Events,Conditions,WindDirDegrees,DateUTC
12:51 AM,48.2,48.2,100,30.01,2.0,NE,5.8,-,0.18,Rain,Heavy Rain,40,2012-10-24 07:51:00
12:53 AM,48.9,48.0,97,30.00,2.5,ENE,4.6,-,0.19,Rain,Heavy Rain,60,2012-10-24 07:53:00
1:02 AM,50.0,48.2,94,30.02,4.0,East,4.6,-,0.03,Rain,Rain,90,2012-10-24 08:02:00
1:53 AM,50.0,48.9,96,30.00,10.0,ESE,3.5,-,0.04,,Overcast,110,2012-10-24 08:53:00
2:26 AM,51.8,48.2,88,30.01,10.0,Calm,Calm,-,N/A,,Overcast,0,2012-10-24 09:26:00
2:49 AM,51.8,48.2,88,30.01,10.0,Calm,Calm,-,N/A,,Overcast,0,2012-10-24 09:49:00
2:53 AM,51.1,48.0,89,29.99,10.0,Calm,Calm,-,N/A,,Overcast,0,2012-10-24 09:53:00
3:53 AM,52.0,50.0,93,30.00,10.0,SE,3.5,-,0.01,,Overcast,140,2012-10-24 10:53:00
4:53 AM,52.0,50.0,93,30.00,10.0,Calm,Calm,-,N/A,,Overcast,0,2012-10-24 11:53:00
5:30 AM,51.8,50.0,94,30.02,10.0,Calm,Calm,-,N/A,,Overcast,0,2012-10-24 12:30:00
5:53 AM,52.0,50.0,93,30.01,10.0,Calm,Calm,-,N/A,,Overcast,0,2012-10-24 12:53:00
6:14 AM,51.8,50.0,94,30.02,10.0,Calm,Calm,-,N/A,,Overcast,0,2012-10-24 13:14:00
6:53 AM,51.1,50.0,96,30.02,10.0,WNW,3.5,-,N/A,,Overcast,290,2012-10-24 13:53:00
7:53 AM,50.0,48.0,93,30.04,3.0,Calm,Calm,-,N/A,,Mostly Cloudy,0,2012-10-24 14:53:00
8:27 AM,51.8,50.0,94,30.07,6.0,Calm,Calm,-,N/A,,Overcast,0,2012-10-24 15:27:00
8:53 AM,52.0,50.0,93,30.06,8.0,Calm,Calm,-,N/A,,Overcast,0,2012-10-24 15:53:00
9:00 AM,53.6,51.8,94,30.08,8.0,NNW,3.5,-,N/A,,Overcast,340,2012-10-24 16:00:00
9:28 AM,53.6,51.8,94,30.09,10.0,Calm,Calm,-,N/A,,Scattered Clouds,0,2012-10-24 16:28:00
9:53 AM,54.0,50.0,86,30.08,8.0,Calm,Calm,-,N/A,,Mostly Cloudy,0,2012-10-24 16:53:00
10:24 AM,55.4,51.8,88,30.10,10.0,Calm,Calm,-,N/A,,Mostly Cloudy,0,2012-10-24 17:24:00
10:53 AM,55.9,50.0,80,30.09,10.0,Calm,Calm,-,N/A,,Mostly Cloudy,0,2012-10-24 17:53:00
11:49 AM,59.0,51.8,77,30.11,10.0,Calm,Calm,-,N/A,,Mostly Cloudy,0,2012-10-24 18:49:00
11:53 AM,59.0,50.0,72,30.09,10.0,Variable,3.5,-,N/A,,Mostly Cloudy,0,2012-10-24 18:53:00
12:53 PM,60.1,46.0,60,30.09,10.0,SW,6.9,-,N/A,,Mostly Cloudy,230,2012-10-24 19:53:00
2:53 PM,63.0,44.1,50,30.08,10.0,WSW,11.5,-,N/A,,Mostly Cloudy,240,2012-10-24 21:53:00
3:53 PM,63.0,44.1,50,30.09,10.0,SW,10.4,-,N/A,,Mostly Cloudy,230,2012-10-24 22:53:00
4:53 PM,61.0,43.0,52,30.11,10.0,WSW,12.7,-,N/A,,Mostly Cloudy,240,2012-10-24 23:53:00
5:53 PM,59.0,44.1,58,30.11,10.0,WSW,8.1,-,N/A,,Mostly Cloudy,240,2012-10-25 00:53:00
6:53 PM,57.0,46.9,69,30.12,10.0,Calm,Calm,-,N/A,,Mostly Cloudy,0,2012-10-25 01:53:00
7:53 PM,55.9,48.9,77,30.14,10.0,Calm,Calm,-,N/A,,Overcast,0,2012-10-25 02:53:00
8:53 PM,55.9,50.0,80,30.15,10.0,Calm,Calm,-,N/A,,Overcast,0,2012-10-25 03:53:00
9:53 PM,55.0,51.1,86,30.16,10.0,Calm,Calm,-,0.00,,Overcast,0,2012-10-25 04:53:00
10:53 PM,55.0,51.1,86,30.17,10.0,Calm,Calm,-,N/A,,Overcast,0,2012-10-25 05:53:00
11:53 PM,54.0,51.1,90,30.18,10.0,Calm,Calm,-,0.00,,Overcast,0,2012-10-25 06:53:00